Location: Marcé
(47.5801°N, 0.3280°W)
Time: 19:50:44
(UTC+01:00)

Vanguard 3 - Pass Details

Date: 15 December 2021
Orbit: 508 x 3260 km, 33.3° (Epoch: 16 January)

Event Time Altitude Azimuth Distance (km) Brightness Sun altitude
Rises 02:29:10 0° 240° (WSW) 5,777 - -59.5°
Reaches altitude 10° 02:32:41 10° 234° (SW) 5,085 - -59.0°
Maximum altitude 02:47:45 48° 167° (SSE) 3,728 - -57.1°
Exits shadow 02:53:26 41° 132° (SE) 4,141 10.5 -56.3°
Drops below altitude 10° 03:06:07 10° 102° (ESE) 6,102 11.8 -54.6°
Sets 03:10:49 0° 97° (E) 6,968 12.3 -53.9°
